This demonstration page uses our WeatherBlox Daily Observations layout. Learn more.

Left ArrowRight Arrow

34.02893, -84.19858

Hourly Observations for August 17, 2015

Temp ( °F °C ) Dew Point ( °F °C ) Humidity (%) Winds ( mph kmh ) Pressure ( in mb ) Visibility ( mi km ) Precip ( " mm )
12:53 am 00:53 Clear 73 22.8 71 21.7 94 94 SSW 3 6 30.10 1019 10 16 0.00 0.00
1:53 am 01:53 Clear 73 22.8 71 21.7 94 94 Calm 30.09 1019 10 16 0.00 0.00
2:53 am 02:53 Clear 73 22.8 71 21.7 94 94 Calm 30.08 1019 10 16 0.00 0.00
3:36 am 03:36 Mostly Cloudy 73 23 72 22 94 94 Calm 30.12 1020 10 16 0.00 0.00
3:49 am 03:49 Mostly Clear 73 23 72 22 94 94 Calm 30.12 1020 10 16 0.00 0.00
3:53 am 03:53 Mostly Clear 73 22.8 71 21.7 94 94 Calm 30.08 1019 10 16 0.00 0.00
4:53 am 04:53 Clear 73 22.8 71 21.7 94 94 Calm 30.08 1019 10 16 0.00 0.00
5:22 am 05:22 Mostly Cloudy 73 23 72 22 94 94 Calm 30.12 1020 10 16 0.00 0.00
5:53 am 05:53 Mostly Cloudy 74 23.3 71 21.7 91 91 Calm 30.09 1019 10 16 0.00 0.00
6:19 am 06:19 Partly Cloudy 73 22.8 71 21.7 94 94 Calm 30.12 1020 10 16 0.00 0.00
6:53 am 06:53 Partly Cloudy 73 22.8 71 21.7 94 94 Calm 30.11 1020 10 16 0.00 0.00
7:21 am 07:21 Cloudy 73 22.8 71 21.7 94 94 VRB 3 6 30.15 1021 10 16 0.00 0.00
7:53 am 07:53 Cloudy with Light Rain 73 22.8 72 22.2 96 96 Calm 30.12 1020 6 10 0.02 0.51
8:53 am 08:53 Cloudy 74 23.3 73 22.8 97 97 Calm 30.12 1020 8 13 0.01 0.25
9:53 am 09:53 Cloudy 75 23.9 74 23.3 96 96 SE 5 7 30.12 1020 10 16 0.00 0.03
10:53 am 10:53 Cloudy 77 25 73 22.8 88 88 SSE 5 7 30.12 1020 10 16 0.00 0.00
10:59 am 10:59 Mostly Cloudy 77 25 73 22.8 88 88 Calm 30.15 1021 10 16 0.00 0.00
11:53 am 11:53 Mostly Cloudy 79 26.1 73 22.8 82 82 SSE 8 13 30.11 1020 10 16 0.00 0.00
12:00 pm 12:00 Mostly Cloudy 79 26 73 23 84 84 SSE 8 13 30.09 1019 10 16 0.00 0.00
12:18 pm 12:18 Partly Cloudy 81 27 73 23 79 79 VRB 5 7 30.09 1019 10 16 0.00 0.00
12:25 pm 12:25 Mostly Cloudy 80 26.7 72 22.2 76 76 S 8 13 30.09 1019 10 16 0.00 0.00
12:36 pm 12:36 Mostly Cloudy 81 27 73 23 79 79 SSE 8 13 30.09 1019 10 16 0.00 0.00
12:53 pm 12:53 Partly Cloudy 81 27.2 72 22.2 74 74 VRB 5 7 30.09 1019 10 16 0.00 0.00
1:53 pm 13:53 Mostly Cloudy 83 28.3 73 22.8 72 72 S 8 13 30.06 1018 10 16 0.00 0.00
2:53 pm 14:53 Partly Cloudy 86 30 72 22.2 63 63 VRB 7 11 30.03 1017 10 16 0.00 0.00
3:30 pm 15:30 Cloudy with Light Rain 77 25 72 22 83 83 S 14 22 30.06 1018 1 2 0.00 0.00
3:38 pm 15:38 Cloudy with Light Rain 75 23.9 71 21.7 88 88 E 5 7 30.06 1018 1 1 0.15 3.81
3:41 pm 15:41 Cloudy with Light Rain 76 24.4 72 22.2 88 88 E 3 6 30.06 1018 8 13 0.15 3.81
3:53 pm 15:53 Partly Cloudy 79 26.1 74 23.3 85 85 Calm 30.02 1017 8 13 0.15 3.81
4:53 pm 16:53 Sunny 85 29.4 75 23.9 72 72 Calm 30.00 1016 10 16 0.00 0.00
5:53 pm 17:53 Mostly Cloudy 84 28.9 73 22.8 70 70 SSE 3 6 29.99 1016 10 16 0.00 0.00
6:53 pm 18:53 Cloudy with Light Rain 76 24.4 71 21.7 85 85 SSW 25 41 30.01 1016 9 14 0.01 0.25
7:01 pm 19:01 Cloudy with Nearby Thunderstorms 73 22.8 72 22.2 96 96 SSW 21 33 30.03 1017 3 4 0.03 0.76
7:09 pm 19:09 Cloudy with Thunderstorms 73 23 72 22 94 94 SW 17 28 30.03 1017 5 8 0.00 0.00
7:39 pm 19:39 Partly Cloudy with Nearby Thunderstorms 73 22.8 71 21.7 94 94 Calm 30.03 1017 4 6 0.08 2.03
7:53 pm 19:53 Partly Cloudy with Nearby Thunderstorms 72 22.2 71 21.7 97 97 NNE 5 7 30.03 1017 5 8 0.11 2.79
8:13 pm 20:13 Partly Cloudy with Light Rain 72 22.2 71 21.7 97 97 Calm 30.06 1018 10 16 0.01 0.25
8:53 pm 20:53 Clear 72 22.2 71 21.7 97 97 Calm 30.05 1018 10 16 0.02 0.51
9:53 pm 21:53 Mostly Cloudy 73 22.8 72 22.2 96 96 Calm 30.05 1018 10 16 0.00 0.03
10:53 pm 22:53 Cloudy 72 22.2 72 22.2 100 100 VRB 5 7 30.04 1017 10 16 0.00 0.00
11:11 pm 23:11 Cloudy 72 22.2 72 22.2 100 100 ESE 5 7 30.06 1018 10 16 0.00 0.00
11:31 pm 23:31 Cloudy 71 21.7 71 21.7 100 100 VRB 3 6 30.06 1018 10 16 0.00 0.00
11:40 pm 23:40 Mostly Cloudy 71 21.7 71 21.7 100 100 Calm 30.06 1018 10 16 0.00 0.00
11:53 pm 23:53 Mostly Cloudy 71 21.7 71 21.7 100 100 Calm 30.05 1018 10 16 0.00 0.00

Powered by AerisWeather